[[{"header":{"parameterUnit":"m.s-1","parameterCategory":1,"la1":30.2991,"la2":30.254,"lo1":-89.0895,"lo2":-89.0444,"dy":0.0017,"dx":0.0017,"nx":28,"ny":28,"refTime":"2024-08-09T21:00:00:Z","depth":0,"parameterNumber":2,"parameterNumberName":"U-component_of_WINDS"},"data":[0,0,0,0,0,0,0,0,0,0,0,0,0,0,0,0,0,0,0,0,0,0,0,0,0,0,0,0,0,0,0,0,0,0,0,0,0,0,0,0,0,0,0,0,0,0,0,0,0,0,0,0,0,0,0,0,0,0,1.9246,1.9248,0,1.9432,1.9434,1.9436,1.9465,1.9464,1.9462,1.946,1.9652,1.9659,1.9665,0,0,0,0,0,0,0,0,0,0,0,0,0,1.8918,1.8923,1.9246,1.9248,1.925,1.9431,1.9434,1.9437,1.9465,1.9463,1.9461,1.946,1.965,1.9658,1.9666,0,0,0,0,0,0,0,0,0,0,0,0,0,1.9077,1.8925,1.9245,1.9287,1.9292,1.9431,1.9434,1.9437,1.9466,1.9463,1.9461,1.9459,1.9647,1.9657,1.9667,1.9778,0,0,1.9697,1.9702,0,0,0,0,0,0,0,0,1.9068,1.9089,1.9278,1.9284,1.929,1.9423,1.9389,1.9552,1.9467,1.94,1.946,1.9457,1.9578,1.9593,1.9634,1.9787,1.9795,1.9698,1.9704,1.9709,1.9711,0,0,0,0,0,0,0,1.9057,1.9082,1.9319,1.9281,1.9288,1.9297,1.9316,1.942,1.9501,1.9406,1.9408,1.943,1.9581,1.9624,1.9639,1.9798,1.9698,1.9707,1.9713,1.9717,2.0053,2.0056,0,0,0,0,0,0,1.9038,1.9072,1.9313,1.9325,1.9171,1.9304,1.9327,1.9383,1.95,1.9515,1.9432,1.943,1.9608,1.9627,1.9645,1.9784,1.9708,1.9718,1.9724,2.005,2.0054,2.0057,0,0,0,0,0,0,1.9031,1.906,1.9306,1.9199,1.9231,1.9313,1.9375,1.9388,1.9431,1.9519,1.9534,1.9461,1.9607,1.9631,1.9745,1.9791,1.9722,1.9731,2.0047,2.0051,2.0055,2.006,0,0,0,0,0,0,1.9022,1.9057,1.9099,1.92,1.9237,1.9402,1.9378,1.9393,1.9448,1.9448,1.9551,1.9565,1.9607,1.973,1.9755,1.9803,1.9739,2.0043,2.0049,2.0054,2.0056,2.0064,2.0071,0,0,0,0,0,1.901,1.9093,1.9101,1.913,1.9291,1.9404,1.9425,1.9471,1.9451,1.9495,1.9552,1.9562,1.9782,1.9741,1.977,1.9822,2.004,2.0047,2.0054,2.0053,2.0063,2.0071,0,0,0,0,0,0,1.8996,1.9107,1.9117,1.9235,1.931,1.9409,1.9465,1.948,1.9562,1.9559,1.9613,1.9636,1.9747,1.9796,1.9749,1.9936,1.991,1.9922,1.99,1.991,1.9917,1.9902,1.9747,0,0,0,0,0,1.9006,1.9088,1.9181,1.9277,1.9314,1.9383,1.9434,1.9463,1.9543,1.9574,1.9639,1.9717,1.9804,1.9859,1.9944,2.0064,2.0087,2.0114,2.0121,2.0127,2.0137,2.0205,2.0218,2.0079,2.0079,2.0079,0,0,1.9029,1.91,1.9148,1.9276,1.9337,1.9421,1.9409,1.9498,1.9561,1.9588,1.9699,1.975,1.984,1.9958,2.0013,2.0002,2.0181,2.0136,2.0139,2.0147,2.0213,2.0226,2.0238,2.0083,2.0082,2.0082,0,0,1.9113,1.9175,1.9261,1.9323,1.9416,1.9462,1.9483,1.958,1.9615,1.9727,1.9749,1.9826,1.9974,2.0037,2.0089,2.0199,2.0211,2.0225,2.0263,2.0329,2.034,2.035,2.039,2.0403,2.0235,2.0235,2.0235,0,1.9129,1.9256,1.9304,1.9393,1.9449,1.9477,1.9566,1.9623,1.9739,1.9778,1.9764,1.9951,2.0014,2.0147,2.0174,2.0215,2.0241,2.0213,2.0335,2.0345,2.0355,2.0394,2.0408,2.0236,2.0236,2.0236,2.0236,0,1.9272,1.936,1.9419,1.953,1.9593,1.9681,1.9743,1.9801,1.9825,1.9873,1.9988,2.0064,2.0165,2.0199,2.0224,2.0337,2.0327,2.0324,2.0298,2.0369,2.0406,2.0421,2.0238,2.0237,2.0237,2.0237,0,0,1.935,1.9488,1.9509,1.956,1.9666,1.9735,1.9825,1.9924,1.9973,2.0052,2.013,2.0255,2.0253,2.0312,2.0344,2.0402,2.0485,2.0392,2.0395,2.0406,2.0614,2.0616,2.0632,2.0494,2.0497,2.05,2.0607,0,1.9447,1.9608,1.9654,1.979,1.9872,1.9901,1.998,2.0054,2.0101,2.0179,2.0232,2.032,2.031,2.0346,2.0404,2.0462,2.0527,2.0455,2.0567,2.057,2.0543,2.0651,2.0653,2.075,2.0622,2.0624,2.0626,0,1.958,1.9662,1.9806,1.9902,1.9939,2.0008,2.0103,2.0177,2.0261,2.0292,2.0358,2.0386,2.0482,2.0452,2.0586,2.0536,2.0585,2.0621,2.0626,2.0637,2.0602,2.0665,2.0783,2.0797,2.0649,2.0647,2.0646,0,1.9623,1.977,1.9875,1.9918,2.0033,2.0081,2.0132,2.0214,2.0271,2.0354,2.0392,2.0485,2.0536,2.0609,2.0661,2.0635,2.0791,2.0765,2.0819,2.0818,2.085,2.0847,2.0976,2.0883,2.0882,2.0882,2.0882,0,1.9725,1.9812,1.9896,1.996,2.0059,2.0113,2.0209,2.0261,2.0334,2.041,2.0442,2.0512,2.0578,2.0658,2.07,2.0805,2.0828,2.0856,2.0866,2.0852,2.0849,2.0884,2.0879,2.0886,2.0885,2.0884,2.0884,0,1.9789,1.9849,1.9965,2.0065,2.0092,2.016,2.0246,2.031,2.0359,2.0455,2.0481,2.0558,2.0654,2.0714,2.0836,2.0864,2.0979,2.0987,2.095,2.0955,2.1006,2.1,2.1161,2.1185,2.1076,2.1077,2.1078,0,1.985,1.9917,2.0024,2.0077,2.0128,2.0213,2.0271,2.0327,2.0387,2.0489,2.0542,2.0639,2.072,2.0872,2.094,2.1034,2.1044,2.1094,2.1058,2.1043,2.1044,2.1039,2.1047,2.11,2.11,2.1101,2.1102,0,1.9952,1.9978,2.006,2.0154,2.0223,2.0299,2.0375,2.0417,2.0486,2.0552,2.065,2.0713,2.0837,2.0934,2.1034,2.1087,2.1106,2.1113,2.113,2.1117,2.1093,2.1107,2.0966,2.1109,2.1108,2.1107,2.1107,2.1107,2.0016,2.0078,2.0163,2.0254,2.0317,2.0388,2.0454,2.0511,2.0594,2.0699,2.0728,2.0831,2.0916,2.1052,2.1107,2.1189,2.1182,2.1207,2.1214,2.1219,2.1219,2.108,2.1207,2.1207,2.1207,2.1207,2.1207,0,2.0119,2.0176,2.0259,2.0365,2.0437,2.0449,2.0535,2.0594,2.0684,2.0761,2.0841,2.0954,2.1049,2.1124,2.1222,2.1273,2.1284,2.1297,2.1293,2.1305,2.122,2.1195,2.1286,2.1286,2.1286,2.1286,2.1286,2.1286,2.0181,2.0286,2.0323,2.0461,2.0517,2.0617,2.0665,2.0731,2.0793,2.0918,2.0997,2.1045,2.1123,2.1226,2.1314,2.1334,2.1368,2.1379,2.14,2.1319,2.1311,2.1302,2.1279,2.1386,2.1386,2.1478,2.1479,2.148]},{"header":{"parameterUnit":"m.s-1","parameterCategory":1,"la1":30.2991,"la2":30.254,"lo1":-89.0895,"lo2":-89.0444,"dy":0.0017,"dx":0.0017,"nx":28,"ny":28,"refTime":"2024-08-09T21:00:00:Z","depth":0,"parameterNumber":3,"parameterNumberName":"V-component_of_WINDS"},"data":[0,0,0,0,0,0,0,0,0,0,0,0,0,0,0,0,0,0,0,0,0,0,0,0,0,0,0,0,0,0,0,0,0,0,0,0,0,0,0,0,0,0,0,0,0,0,0,0,0,0,0,0,0,0,0,0,0,0,0.134,0.1341,0,0.1407,0.1408,0.1409,0.1385,0.1383,0.1382,0.138,0.1451,0.1454,0.1457,0,0,0,0,0,0,0,0,0,0,0,0,0,0.1193,0.1196,0.134,0.1341,0.1342,0.1407,0.1408,0.1409,0.1385,0.1383,0.1381,0.138,0.1449,0.1453,0.1457,0,0,0,0,0,0,0,0,0,0,0,0,0,0.1258,0.1197,0.134,0.1338,0.1338,0.1407,0.1408,0.1409,0.1385,0.1383,0.1381,0.1379,0.1448,0.1453,0.1458,0.1533,0,0,0.1473,0.1475,0,0,0,0,0,0,0,0,0.1254,0.1264,0.1337,0.1338,0.1339,0.1385,0.1382,0.1451,0.1386,0.1368,0.138,0.1378,0.1431,0.1437,0.1454,0.1536,0.1539,0.1473,0.1476,0.1478,0.148,0,0,0,0,0,0,0,0.125,0.1261,0.1367,0.1339,0.1339,0.1334,0.134,0.1395,0.1411,0.1369,0.1367,0.1375,0.1431,0.145,0.1456,0.154,0.1473,0.1477,0.148,0.1482,0.1686,0.1689,0,0,0,0,0,0,0.1245,0.1257,0.1365,0.1369,0.129,0.1338,0.1346,0.1373,0.141,0.1414,0.1377,0.1374,0.1443,0.145,0.1458,0.1549,0.1478,0.1483,0.1486,0.1684,0.1687,0.1689,0,0,0,0,0,0,0.1242,0.1255,0.1362,0.1312,0.1326,0.1343,0.1373,0.1375,0.1394,0.1417,0.142,0.1394,0.1441,0.1451,0.1514,0.1551,0.1485,0.149,0.1681,0.1685,0.1688,0.1731,0,0,0,0,0,0,0.1238,0.1254,0.1283,0.1313,0.1328,0.1417,0.1376,0.1378,0.1402,0.1399,0.1433,0.1436,0.144,0.1507,0.1519,0.1557,0.1493,0.1678,0.1683,0.1687,0.1726,0.1735,0.1743,0,0,0,0,0,0.1233,0.1293,0.1284,0.1298,0.1365,0.1419,0.1428,0.143,0.1406,0.1435,0.1449,0.1435,0.1544,0.1514,0.1527,0.1567,0.1675,0.1681,0.1687,0.1722,0.1734,0.1743,0,0,0,0,0,0,0.1268,0.1297,0.1288,0.136,0.1387,0.1415,0.1452,0.1442,0.1478,0.1473,0.1475,0.1483,0.1548,0.1563,0.1528,0.1641,0.1606,0.1615,0.1629,0.164,0.1648,0.1644,0.1497,0,0,0,0,0,0.1283,0.1325,0.1348,0.1409,0.1423,0.1435,0.1459,0.1458,0.1487,0.1499,0.1517,0.1546,0.1587,0.1614,0.1652,0.1727,0.1734,0.1761,0.1769,0.1776,0.1784,0.1824,0.1836,0.1708,0.1708,0.1708,0,0,0.1317,0.1338,0.1364,0.1417,0.1438,0.1481,0.1445,0.1493,0.1525,0.1506,0.1567,0.1581,0.1613,0.1682,0.1713,0.1697,0.1821,0.1783,0.1789,0.1793,0.1831,0.1843,0.1854,0.1711,0.1711,0.171,0,0,0.1401,0.142,0.1473,0.1494,0.1526,0.1533,0.1546,0.1575,0.1584,0.1644,0.1631,0.1668,0.1739,0.1762,0.1783,0.1872,0.1861,0.1884,0.193,0.1969,0.198,0.1989,0.2021,0.2033,0.1892,0.1892,0.1892,0,0.1439,0.1503,0.1502,0.155,0.1573,0.1556,0.161,0.1631,0.1674,0.1691,0.1671,0.1757,0.1778,0.1852,0.1873,0.189,0.1905,0.1882,0.1978,0.1987,0.1996,0.2027,0.2039,0.1895,0.1894,0.1894,0.1894,0,0.1548,0.1593,0.1631,0.1672,0.17,0.175,0.1757,0.1785,0.178,0.179,0.1851,0.1874,0.1917,0.1934,0.1931,0.2007,0.1996,0.1977,0.1943,0.2011,0.204,0.2052,0.1899,0.1898,0.1897,0.1896,0,0,0.1659,0.1696,0.1711,0.1729,0.1761,0.1796,0.1845,0.1886,0.191,0.1939,0.198,0.2039,0.2021,0.2045,0.2044,0.2078,0.2147,0.2055,0.2055,0.2072,0.2233,0.2248,0.2262,0.2139,0.2141,0.2143,0.223,0,0.1746,0.1832,0.1831,0.1911,0.1952,0.1935,0.1978,0.2002,0.2012,0.2048,0.2057,0.2099,0.2072,0.2086,0.2119,0.2132,0.218,0.2125,0.2178,0.218,0.2173,0.2277,0.2294,0.2375,0.2242,0.2244,0.2245,0,0.186,0.1892,0.1975,0.2,0.2018,0.2056,0.2093,0.2127,0.2154,0.2158,0.2183,0.2176,0.2226,0.2188,0.2257,0.222,0.2241,0.225,0.2253,0.226,0.2218,0.2288,0.2401,0.2414,0.2263,0.2261,0.226,0,0.1933,0.1997,0.2055,0.207,0.2101,0.2129,0.2143,0.2167,0.2191,0.2223,0.2238,0.2276,0.2297,0.2325,0.2328,0.2301,0.2397,0.236,0.2403,0.2403,0.2426,0.2425,0.2546,0.2437,0.2437,0.2437,0.2436,0,0.2031,0.2083,0.2088,0.2124,0.2181,0.2179,0.2236,0.2248,0.227,0.2307,0.2295,0.233,0.2332,0.2368,0.2371,0.2427,0.2436,0.2441,0.2442,0.2444,0.2443,0.2459,0.2454,0.244,0.2439,0.2438,0.2438,0,0.2124,0.2129,0.2191,0.2214,0.2221,0.2263,0.2283,0.2317,0.2323,0.2371,0.2382,0.2393,0.2435,0.244,0.249,0.2491,0.256,0.2553,0.2551,0.255,0.2593,0.259,0.2731,0.2749,0.2626,0.2627,0.2628,0,0.2188,0.2227,0.2254,0.2278,0.2293,0.2332,0.2356,0.2355,0.238,0.2412,0.2443,0.2483,0.2516,0.2583,0.2596,0.2633,0.2629,0.2675,0.2634,0.2635,0.2631,0.2629,0.2633,0.2684,0.2685,0.2686,0.2687,0,0.23,0.23,0.2335,0.237,0.2399,0.2427,0.2453,0.2473,0.2475,0.2504,0.2546,0.2572,0.2621,0.2661,0.2698,0.2712,0.2701,0.2699,0.2712,0.2715,0.2712,0.2715,0.2574,0.2697,0.2696,0.2695,0.2695,0.2694,0.2381,0.2415,0.2439,0.2478,0.2497,0.2521,0.2554,0.2564,0.2599,0.2639,0.2635,0.2682,0.2706,0.2753,0.277,0.2807,0.2791,0.2809,0.2813,0.2818,0.2823,0.2704,0.2813,0.2813,0.2812,0.2812,0.2812,0,0.2494,0.2507,0.2543,0.2579,0.261,0.2594,0.2621,0.2648,0.2689,0.2712,0.2744,0.2792,0.283,0.2845,0.2882,0.2909,0.2904,0.2919,0.2918,0.2921,0.2834,0.282,0.2922,0.2922,0.2922,0.2922,0.2921,0.2921,0.2556,0.2613,0.2615,0.2681,0.2694,0.2739,0.2756,0.2779,0.2797,0.2851,0.2883,0.2891,0.291,0.2949,0.2983,0.2986,0.3001,0.3018,0.3019,0.2938,0.2927,0.2917,0.2904,0.3021,0.3021,0.3104,0.3104,0.3105]}]]